Time,TemperatureF,DewpointF,PressureIn,WindDirection,WindDirectionDegrees,WindSpeedMPH,WindSpeedGustMPH,Humidity,HourlyPrecipIn,Conditions,Clouds,dailyrainin,SoftwareType,DateUTC
2013-01-27 02:22:00,33.0,32.0,29.74,SSW,213,5.0,-999.0,95,-99.99,,,-99.99,,2013-01-27 09:22:00,
2013-01-27 02:32:00,33.0,31.0,29.74,SW,220,6.0,-999.0,94,-99.99,,,-99.99,,2013-01-27 09:32:00,
2013-01-27 02:42:00,33.0,31.0,29.74,SW,220,6.0,-999.0,94,-99.99,,,-99.99,,2013-01-27 09:42:00,
2013-01-27 02:51:00,33.0,31.0,29.74,SW,215,6.0,-999.0,93,-99.99,,,-99.99,,2013-01-27 09:51:00,
2013-01-27 03:01:00,33.0,31.0,29.74,SW,215,4.0,-999.0,93,-99.99,,,-99.99,,2013-01-27 10:01:00,
2013-01-27 03:11:00,33.0,31.0,29.74,SSW,202,3.0,-999.0,92,-99.99,,,-99.99,,2013-01-27 10:11:00,
2013-01-27 03:21:00,33.0,31.0,29.74,SSW,202,3.0,-999.0,92,-99.99,,,-99.99,,2013-01-27 10:21:00,
2013-01-27 03:31:00,33.0,31.0,29.74,SSW,202,3.0,-999.0,92,-99.99,,,-99.99,,2013-01-27 10:31:00,
2013-01-27 03:41:00,33.0,31.0,29.74,SSW,202,3.0,-999.0,92,-99.99,,,-99.99,,2013-01-27 10:41:00,
2013-01-27 03:51:00,33.0,31.0,29.74,SSW,202,3.0,-999.0,92,-99.99,,,-99.99,,2013-01-27 10:51:00,
2013-01-27 09:02:00,33.0,30.0,29.69,SW,215,4.0,-999.0,89,-99.99,,,-99.99,,2013-01-27 16:02:00,
2013-01-27 09:11:00,33.0,30.0,29.69,SW,215,4.0,-999.0,89,-99.99,,,-99.99,,2013-01-27 16:11:00,
2013-01-27 09:21:00,33.0,30.0,29.68,SSW,193,2.0,-999.0,89,-99.99,,,-99.99,,2013-01-27 16:21:00,
2013-01-27 09:32:00,33.0,30.0,29.68,SSW,207,2.0,-999.0,90,-99.99,,,-99.99,,2013-01-27 16:32:00,
2013-01-27 09:41:00,33.0,30.0,29.68,SSW,207,2.0,-999.0,90,-99.99,,,-99.99,,2013-01-27 16:41:00,
2013-01-27 09:52:00,33.0,30.0,29.68,SW,225,7.0,-999.0,89,-99.99,,,-99.99,,2013-01-27 16:52:00,
2013-01-27 10:01:00,32.0,30.0,29.68,SW,219,8.0,-999.0,91,-99.99,,,-99.99,,2013-01-27 17:01:00,
2013-01-27 10:11:00,32.0,30.0,29.68,SW,219,8.0,-999.0,91,-99.99,,,-99.99,,2013-01-27 17:11:00,
2013-01-27 10:21:00,32.0,30.0,29.68,SW,219,8.0,-999.0,91,-99.99,,,-99.99,,2013-01-27 17:21:00,
2013-01-27 10:31:00,32.0,30.0,29.68,SW,219,8.0,-999.0,91,-99.99,,,-99.99,,2013-01-27 17:31:00,
2013-01-27 10:41:00,32.0,30.0,29.68,SW,219,8.0,-999.0,91,-99.99,,,-99.99,,2013-01-27 17:41:00,
2013-01-27 10:52:00,32.0,30.0,29.69,SSW,207,5.0,-999.0,94,-99.99,,,-99.99,,2013-01-27 17:52:00,
2013-01-27 11:02:00,32.0,30.0,29.69,SSW,213,5.0,-999.0,93,-99.99,,,-99.99,,2013-01-27 18:02:00,
2013-01-27 11:11:00,32.0,30.0,29.69,SSW,213,5.0,-999.0,93,-99.99,,,-99.99,,2013-01-27 18:11:00,
2013-01-27 11:22:00,32.0,30.0,29.68,SW,223,6.0,-999.0,93,-99.99,,,-99.99,,2013-01-27 18:22:00,
2013-01-27 11:31:00,32.0,30.0,29.68,SW,231,8.0,-999.0,93,-99.99,,,-99.99,,2013-01-27 18:31:00,
2013-01-27 11:41:00,32.0,30.0,29.68,SW,231,8.0,-999.0,93,-99.99,,,-99.99,,2013-01-27 18:41:00,
2013-01-27 11:52:00,32.0,30.0,29.67,SW,232,8.0,-999.0,93,-99.99,,,-99.99,,2013-01-27 18:52:00,
2013-01-27 12:01:00,32.0,30.0,29.66,WSW,243,9.0,-999.0,93,-99.99,,,-99.99,,2013-01-27 19:01:00,
2013-01-27 12:11:00,32.0,30.0,29.66,WSW,243,9.0,-999.0,93,-99.99,,,-99.99,,2013-01-27 19:11:00,
2013-01-27 12:21:00,32.0,30.0,29.66,WSW,252,9.0,-999.0,93,-99.99,,,-99.99,,2013-01-27 19:21:00,
2013-01-27 12:31:00,32.0,30.0,29.66,WSW,252,9.0,-999.0,93,-99.99,,,-99.99,,2013-01-27 19:31:00,
2013-01-27 12:41:00,32.0,30.0,29.66,WSW,252,9.0,-999.0,93,-99.99,,,-99.99,,2013-01-27 19:41:00,
2013-01-27 12:51:00,32.0,30.0,29.66,WSW,252,9.0,-999.0,93,-99.99,,,-99.99,,2013-01-27 19:51:00,
2013-01-27 13:22:00,30.0,28.0,29.64,WSW,258,4.0,-999.0,91,-99.99,,,-99.99,,2013-01-27 20:22:00,
2013-01-27 13:33:00,30.0,28.0,29.64,West,270,4.0,-999.0,92,-99.99,,,-99.99,,2013-01-27 20:33:00,
2013-01-27 13:42:00,30.0,28.0,29.64,West,270,4.0,-999.0,92,-99.99,,,-99.99,,2013-01-27 20:42:00,
2013-01-27 13:52:00,30.0,28.0,29.64,SSE,147,2.0,-999.0,93,-99.99,,,-99.99,,2013-01-27 20:52:00,
2013-01-27 14:01:00,30.0,28.0,29.64,SE,141,4.0,-999.0,93,-99.99,,,-99.99,,2013-01-27 21:01:00,
2013-01-27 14:11:00,30.0,28.0,29.64,SE,141,4.0,-999.0,93,-99.99,,,-99.99,,2013-01-27 21:11:00,
2013-01-27 14:21:00,30.0,28.0,29.64,SSE,148,2.0,-999.0,93,-99.99,,,-99.99,,2013-01-27 21:21:00,
2013-01-27 14:32:00,30.0,28.0,29.64,South,173,3.0,-999.0,93,-99.99,,,-99.99,,2013-01-27 21:32:00,
2013-01-27 14:42:00,30.0,28.0,29.64,South,173,3.0,-999.0,93,-99.99,,,-99.99,,2013-01-27 21:42:00,
2013-01-27 14:52:00,30.0,28.0,29.61,South,178,1.0,-999.0,93,-99.99,,,-99.99,,2013-01-27 21:52:00,
2013-01-27 15:01:00,30.0,28.0,29.61,ESE,111,1.0,-999.0,92,-99.99,,,-99.99,,2013-01-27 22:01:00,
2013-01-27 15:11:00,30.0,28.0,29.61,ESE,111,1.0,-999.0,92,-99.99,,,-99.99,,2013-01-27 22:11:00,
2013-01-27 15:21:00,30.0,28.0,29.61,South,173,1.0,-999.0,92,-99.99,,,-99.99,,2013-01-27 22:21:00,
2013-01-27 15:31:00,30.0,28.0,29.62,South,173,1.0,-999.0,93,-99.99,,,-99.99,,2013-01-27 22:31:00,
2013-01-27 15:42:00,30.0,28.0,29.62,South,173,1.0,-999.0,93,-99.99,,,-99.99,,2013-01-27 22:42:00,
2013-01-27 15:52:00,29.0,27.0,29.62,NE,36,1.0,-999.0,92,-99.99,,,-99.99,,2013-01-27 22:52:00,
2013-01-27 16:01:00,29.0,27.0,29.63,NW,319,1.0,-999.0,92,-99.99,,,-99.99,,2013-01-27 23:01:00,
2013-01-27 16:11:00,29.0,27.0,29.63,NW,319,1.0,-999.0,92,-99.99,,,-99.99,,2013-01-27 23:11:00,
2013-01-27 16:21:00,29.0,27.0,29.63,NW,319,1.0,-999.0,92,-99.99,,,-99.99,,2013-01-27 23:21:00,
2013-01-27 16:31:00,28.0,26.0,29.64,NNW,342,1.0,-999.0,92,-99.99,,,-99.99,,2013-01-27 23:31:00,
2013-01-27 16:41:00,28.0,26.0,29.64,NNW,342,1.0,-999.0,92,-99.99,,,-99.99,,2013-01-27 23:41:00,
2013-01-27 16:53:00,28.0,26.0,29.65,NNE,27,3.0,-999.0,92,-99.99,,,-99.99,,2013-01-27 23:53:00,
2013-01-27 17:01:00,28.0,26.0,29.65,NNE,17,2.0,-999.0,92,-99.99,,,-99.99,,2013-01-28 00:01:00,
2013-01-27 17:11:00,28.0,26.0,29.65,NNE,17,2.0,-999.0,92,-99.99,,,-99.99,,2013-01-28 00:11:00,
2013-01-27 17:21:00,28.0,26.0,29.65,NNW,348,3.0,-999.0,91,-99.99,,,-99.99,,2013-01-28 00:21:00,
2013-01-27 17:31:00,27.0,23.0,29.66,West,262,4.0,-999.0,86,-99.99,,,-99.99,,2013-01-28 00:31:00,
2013-01-27 17:41:00,27.0,23.0,29.66,West,262,4.0,-999.0,86,-99.99,,,-99.99,,2013-01-28 00:41:00,
2013-01-27 17:52:00,27.0,23.0,29.67,WNW,296,4.0,-999.0,83,-99.99,,,-99.99,,2013-01-28 00:52:00,
2013-01-27 18:01:00,27.0,24.0,29.67,WNW,301,2.0,-999.0,88,-99.99,,,-99.99,,2013-01-28 01:01:00,
2013-01-27 18:11:00,27.0,24.0,29.67,WNW,301,2.0,-999.0,88,-99.99,,,-99.99,,2013-01-28 01:11:00,
2013-01-27 18:21:00,27.0,24.0,29.67,WSW,254,2.0,-999.0,89,-99.99,,,-99.99,,2013-01-28 01:21:00,
2013-01-27 18:32:00,27.0,24.0,29.67,WSW,254,1.0,-999.0,90,-99.99,,,-99.99,,2013-01-28 01:32:00,
2013-01-27 18:42:00,27.0,24.0,29.67,WSW,254,1.0,-999.0,90,-99.99,,,-99.99,,2013-01-28 01:42:00,
2013-01-27 18:52:00,25.0,22.0,29.67,SSE,149,1.0,-999.0,87,-99.99,,,-99.99,,2013-01-28 01:52:00,
2013-01-27 19:01:00,25.0,21.0,29.67,SSE,161,2.0,-999.0,84,-99.99,,,-99.99,,2013-01-28 02:01:00,
2013-01-27 19:11:00,25.0,21.0,29.67,SSE,161,2.0,-999.0,84,-99.99,,,-99.99,,2013-01-28 02:11:00,
2013-01-27 19:21:00,24.0,20.0,29.67,SSE,160,3.0,-999.0,86,-99.99,,,-99.99,,2013-01-28 02:21:00,
2013-01-27 19:32:00,24.0,20.0,29.68,South,182,4.0,-999.0,85,-99.99,,,-99.99,,2013-01-28 02:32:00,
2013-01-27 19:41:00,24.0,20.0,29.68,South,182,4.0,-999.0,85,-99.99,,,-99.99,,2013-01-28 02:41:00,
2013-01-27 19:52:00,24.0,20.0,29.69,SSE,154,4.0,-999.0,84,-99.99,,,-99.99,,2013-01-28 02:52:00,
2013-01-27 20:01:00,24.0,20.0,29.70,South,182,4.0,-999.0,85,-99.99,,,-99.99,,2013-01-28 03:01:00,
2013-01-27 20:11:00,24.0,20.0,29.70,South,182,4.0,-999.0,85,-99.99,,,-99.99,,2013-01-28 03:11:00,
2013-01-27 20:21:00,23.0,19.0,29.70,SSE,166,3.0,-999.0,86,-99.99,,,-99.99,,2013-01-28 03:21:00,
2013-01-27 20:31:00,22.0,18.0,29.70,SW,236,1.0,-999.0,85,-99.99,,,-99.99,,2013-01-28 03:31:00,
2013-01-27 20:41:00,22.0,18.0,29.70,SW,236,1.0,-999.0,85,-99.99,,,-99.99,,2013-01-28 03:41:00,
2013-01-27 20:52:00,22.0,18.0,29.71,South,183,3.0,-999.0,85,-99.99,,,-99.99,,2013-01-28 03:52:00,
2013-01-27 21:01:00,22.0,18.0,29.71,South,175,3.0,-999.0,85,-99.99,,,-99.99,,2013-01-28 04:01:00,
2013-01-27 21:11:00,22.0,18.0,29.71,South,175,3.0,-999.0,85,-99.99,,,-99.99,,2013-01-28 04:11:00,
2013-01-27 21:21:00,22.0,18.0,29.71,SSE,168,3.0,-999.0,84,-99.99,,,-99.99,,2013-01-28 04:21:00,
2013-01-27 21:31:00,22.0,18.0,29.70,SSW,192,3.0,-999.0,84,-99.99,,,-99.99,,2013-01-28 04:31:00,
2013-01-27 21:41:00,22.0,18.0,29.70,SSW,192,3.0,-999.0,84,-99.99,,,-99.99,,2013-01-28 04:41:00,
2013-01-27 21:52:00,22.0,18.0,29.70,South,187,3.0,-999.0,84,-99.99,,,-99.99,,2013-01-28 04:52:00,
2013-01-27 22:03:00,22.0,18.0,29.70,South,177,5.0,-999.0,83,-99.99,,,-99.99,,2013-01-28 05:03:00,
2013-01-27 22:11:00,22.0,18.0,29.70,South,177,5.0,-999.0,83,-99.99,,,-99.99,,2013-01-28 05:11:00,
2013-01-27 22:21:00,21.0,17.0,29.71,SSE,167,4.0,-999.0,83,-99.99,,,-99.99,,2013-01-28 05:21:00,
2013-01-27 22:31:00,20.0,16.0,29.71,SSE,167,3.0,-999.0,84,-99.99,,,-99.99,,2013-01-28 05:31:00,
2013-01-27 22:41:00,20.0,16.0,29.71,SSE,167,3.0,-999.0,84,-99.99,,,-99.99,,2013-01-28 05:41:00,
2013-01-27 22:52:00,21.0,17.0,29.71,SSE,164,6.0,-999.0,86,-99.99,,,-99.99,,2013-01-28 05:52:00,
2013-01-27 23:01:00,21.0,17.0,29.72,South,170,7.0,-999.0,86,-99.99,,,-99.99,,2013-01-28 06:01:00,
2013-01-27 23:11:00,21.0,17.0,29.72,South,170,7.0,-999.0,86,-99.99,,,-99.99,,2013-01-28 06:11:00,
2013-01-27 23:21:00,20.0,16.0,29.72,SSW,197,5.0,-999.0,85,-99.99,,,-99.99,,2013-01-28 06:21:00,
2013-01-27 23:31:00,20.0,17.0,29.72,South,190,5.0,-999.0,87,-99.99,,,-99.99,,2013-01-28 06:31:00,
2013-01-27 23:41:00,20.0,17.0,29.72,South,190,5.0,-999.0,87,-99.99,,,-99.99,,2013-01-28 06:41:00,
2013-01-27 23:52:00,19.0,16.0,29.72,South,189,2.0,-999.0,86,-99.99,,,-99.99,,2013-01-28 06:52:00,